Terminal Aerodrome Forecast
Issued by NWS Pittsburgh, PA

Current Version | Previous Version | Graphics & Text | Print | Product List | Glossary On
Versions: 1 2 3 4 5 6 7 8 9 10 11 12 13 14 15 16 17 18 19 20 21 22 23 24 25 26 27 28 29 30 31 32 33
000
FTUS41 KPBZ 042031 AAA
TAFPIT
TAF AMD
KPIT 042031Z 0421/0524 24013G21KT P6SM BKN250
     FM050100 22008KT P6SM BKN100
     FM050800 23008KT P6SM -SHRA OVC035
     FM051000 25007KT 5SM -SHRA BR OVC025
     FM051300 VRB04KT P6SM OVC015=

USA.gov is the U.S. government's official web portal to all federal, state and local government web resources and services.